Location: *
(44.3925°N, 5.4708°E)
Time: 06:55:37
(UTC+00:00)

SL-8 R/B - Pass Details

Date: 18 September 2019
Orbit: 657 x 667 km, 48.4° (Epoch: 20 October)

Event Time Altitude Azimuth Distance (km) Brightness Sun altitude
Rises 18:59:44 0° 260° (W) 2,980 8.3 -14.2°
Reaches altitude 10° 19:02:06 10° 264° (W) 2,071 7.3 -14.6°
Maximum altitude 19:06:50 63° 346° (NNW) 736 4.0 -15.4°
Enters shadow 19:10:24 18° 65° (ENE) 1,632 5.3 -16.0°
